Home   Weather   Brownsville   Past weeks

Flag for USA Past Weather in Brownsville, Texas, USA — Yesterday and Last 2 Weeks

Now
87 °F

Mostly cloudy.


Feels Like: 98 °F
Forecast: 75 / 88 °F
Wind: 14 mph from Northeast

Location: Brownsville / South Padre Island International Airport

Current Time: Sep 29, 2016 at 1:42:11 PM

Latest Report: Sep 29, 2016 at 1:01 PM


Visibility: 10 mi

Pressure: 30.12 "Hg

Humidity: 69%

Dew Point: 76 °F

Location of BrownsvilleLocation

Past Weather in Brownsville — Graph

°F

Brownsville Temperature Yesterday

Maximum temperature yesterday: 84 °F (at 4:53 PM)
Minimum temperature yesterday: 72 °F (at 3:53 AM)
Average temperature yesterday: 77 °F

High & Low Weather Summary for the Past Weeks

 TemperatureHumidityPressure
High97 °F (Sep 17, 3:53 PM)97% (Sep 27, 1:01 PM)30.11 "Hg (Sep 27, 1:01 PM)
Low72 °F (Sep 28, 3:53 AM)40% (Sep 21, 1:53 PM)29.83 "Hg (Sep 25, 4:53 PM)
Average84 °F76%29.94 "Hg
* Reported Sep 14 11:53 AM — Sep 29 11:53 AM, Brownsville, Weather by CustomWeather, © 2016

Note: Actual official high and low records may vary slightly from our data, if they occured in-between our weather recording intervals... More about our weather records

Advertising

Brownsville Weather History for the Previous 24 Hours

Scroll right to see more
 ConditionsComfort  
Time TempWeatherWind HumidityBarometerVisibility
11:53 AM
Thu, Sep 29
82 °FLight rain. Mostly cloudy.7 mph85%30.11 "Hg10 mi
10:53 AM85 °FBroken clouds.9 mph75%30.11 "Hg10 mi
9:53 AM82 °FSunny.6 mph82%30.10 "Hg10 mi
8:53 AM81 °FSunny.7 mph85%30.09 "Hg10 mi
7:53 AM76 °FSunny.6 mph94%30.06 "Hg10 mi
6:53 AM76 °FClear.5 mph97%30.05 "Hg10 mi
5:53 AM77 °FPassing clouds.5 mph94%30.04 "Hg10 mi
4:53 AM77 °FPassing clouds.No wind94%30.03 "Hg10 mi
3:53 AM78 °FOvercast.3 mph90%30.03 "Hg10 mi
2:53 AM78 °FPassing clouds.3 mph93%30.03 "Hg10 mi
1:53 AM78 °FPassing clouds.5 mph93%30.03 "Hg10 mi
12:53 AM77 °FPassing clouds.5 mph96%30.04 "Hg10 mi
11:53 PM
Wed, Sep 28
78 °FPassing clouds.No wind93%30.04 "Hg10 mi
10:53 PM78 °FClear.5 mph93%30.03 "Hg10 mi
9:53 PM79 °FClear.3 mph90%30.02 "Hg10 mi
8:53 PM80 °FClear.7 mph85%30.01 "Hg10 mi
7:53 PM80 °FClear.7 mph85%30.00 "Hg10 mi
6:53 PM82 °FSunny.12 mph74%29.99 "Hg10 mi
5:53 PM83 °FPassing clouds.9 mph74%29.99 "Hg10 mi
4:53 PM84 °FPassing clouds.15 mph72%29.98 "Hg10 mi
4:02 PM81 °FPartly sunny.13 mph79%29.99 "Hg10 mi
3:53 PM82 °FScattered clouds.14 mph77%29.99 "Hg10 mi
2:53 PM81 °FCloudy.9 mph85%30.00 "Hg10 mi
2:00 PM80 °FMostly cloudy.10 mph87%30.02 "Hg10 mi
1:53 PM79 °FLight rain. Cloudy.5 mph90%30.01 "Hg10 mi
Weather by CustomWeather, © 2016

See weather overviewHow to use our weather pages